N8QQ Weather Reports


Display with metric or nautical units.
time (UTC)temp
F
wind
direction
speed
MPH
gust
MPH
rain 1hr
in
rain 24hr
in
rain mn
in
humidity
%
barometer
mb
20260509124026 55 0.0 0.0 0.01 0.12 0.12 99 1003.4
20260509123050 55 0.0 0.0 0.01 0.12 0.12 99 1003.6
20260509122033 55 0.0 0.0 0.01 0.12 0.12 99 1003.7
20260509121039 55 0.0 0.0 0.01 0.12 0.12 99 1003.7
20260509120021 55 0.0 0.0 0.00 0.10 0.10 99 1003.6
20260509115024 54 0.0 0.0 0.00 0.10 0.10 99 1003.4
20260509114047 54 0.0 0.0 0.00 0.10 0.10 99 1003.3
20260509113032 54 0.0 0.0 0.00 0.10 0.10 99 1003.3
20260509112015 54 0.0 0.0 0.00 0.10 0.10 99 1003.3
20260509111039 54 0.0 0.0 0.01 0.10 0.10 99 1003.2
20260509110041 54 0.0 0.0 0.03 0.10 0.10 99 1003.0
20260509105024 54 0.0 0.0 0.03 0.10 0.10 99 1003.3
20260509104027 54 0.0 0.0 0.03 0.10 0.10 99 1003.6
20260509103044 54 0.0 0.0 0.03 0.09 0.09 99 1003.7
20260509102015 54 0.0 0.0 0.03 0.09 0.09 99 1003.7
20260509101040 54 0.0 0.0 0.03 0.09 0.09 99 1003.8
20260509100016 54 0.0 0.0 0.01 0.07 0.07 99 1003.8
20260509095025 54 0.0 0.0 0.03 0.07 0.07 99 1003.8
20260509094028 54 0.0 0.0 0.02 0.06 0.06 99 1004.0
20260509093032 54 0.0 0.0 0.02 0.06 0.06 99 1003.8
20260509092016 54 0.0 0.0 0.02 0.06 0.06 99 1003.9
20260509091020 54 0.0 0.0 0.02 0.06 0.06 99 1004.0
20260509090023 54 0.0 0.0 0.02 0.06 0.06 99 1004.1
20260509085026 54 0.0 0.0 0.01 0.04 0.04 99 1004.3
20260509084110 54 0.0 0.0 0.01 0.04 0.04 99 1004.3
20260509083032 54 0.0 0.0 0.02 0.03 0.03 99 1004.5
20260509082017 54 0.0 0.0 0.02 0.03 0.03 99 1004.5
20260509081020 54 0.0 0.0 0.02 0.03 0.03 99 1004.5
20260509080024 54 0.0 0.0 0.02 0.03 0.03 99 1004.4
20260509075108 54 0.0 0.0 0.01 0.03 0.03 99 1004.6
20260509074051 54 0.0 0.0 0.02 0.03 0.03 99 1004.2
20260509073033 54 0.0 0.0 0.00 0.01 0.01 99 1004.3
20260509072038 54 0.0 0.0 0.01 0.01 0.01 99 1004.6
20260509071021 54 0.0 0.0 0.01 0.01 0.01 99 1004.8
20260509070024 54 0.0 0.0 0.01 0.01 0.01 99 1004.9
20260509065041 54 0.0 0.0 0.01 0.01 0.01 99 1005.1
20260509064018 54 0.0 0.0 0.00 0.00 0.00 99 1005.0
20260509063015 54 0.0 0.0 0.00 0.00 0.00 99 1005.3
20260509062019 54 196 0.0 2.0 0.00 0.00 0.00 99 1005.2
20260509061021 54 225 0.0 1.0 0.00 0.00 0.00 98 1005.1
20260509060025 54 0.0 0.0 0.00 0.00 0.00 97 1005.0
20260509055049 54 0.0 0.0 0.00 0.00 0.00 98 1004.9
20260509054033 54 0.0 0.0 0.00 0.00 0.00 97 1004.8
20260509053018 54 0.0 0.0 0.00 0.00 0.00 97 1004.9
20260509052019 55 0.0 0.0 0.00 0.00 0.00 97 1005.0
20260509051023 55 100 0.0 2.0 0.00 0.00 0.00 97 1005.0
20260509050026 55 117 0.0 2.0 0.00 0.00 0.00 96 1005.0
20260509045049 55 146 0.0 2.0 0.00 0.00 0.00 95 1005.1
20260509044027 55 70 0.0 3.0 0.00 0.00 0.00 94 1005.3
20260509043030 55 238 0.0 2.0 0.00 0.00 0.00 93 1005.3
20260509042033 55 0.0 0.0 0.00 0.00 0.00 92 1005.3
20260509041019 56 236 0.0 2.0 0.00 0.00 0.00 91 1005.3
20260509040026 56 143 0.0 1.0 0.00 0.00 0.00 90 1005.4
20260509035024 56 67 0.0 2.0 0.00 0.00 0.00 90 1005.4
20260509034027 56 174 0.0 2.0 0.00 0.00 0.00 89 1005.6
20260509033026 56 173 1.0 2.0 0.00 0.00 0.00 88 1005.6
20260509032037 56 229 1.0 2.0 0.00 0.00 0.00 88 1005.6
20260509031020 57 113 1.0 2.0 0.00 0.00 0.00 87 1005.7
20260509030036 57 138 2.0 3.0 0.00 0.00 0.00 86 1005.8
20260509025025 57 259 2.0 6.0 0.00 0.00 0.00 85 1005.9
20260509024049 57 172 2.0 4.0 0.00 0.00 0.00 84 1005.6
20260509023031 58 170 3.0 5.0 0.00 0.00 0.00 83 1005.7
20260509022016 59 266 0.0 2.0 0.00 0.00 0.00 79 1005.3
20260509021120 59 246 1.0 2.0 0.00 0.00 0.00 75 1005.1
20260509020023 59 0.0 0.0 0.00 0.00 0.00 72 1005.0
20260509015026 59 0.0 0.0 0.00 0.00 0.00 71 1004.8
20260509014049 60 0.0 0.0 0.00 0.00 0.00 72 1004.9
20260509013032 60 133 1.0 2.0 0.00 0.00 0.00 71 1005.3
20260509012138 61 224 1.0 4.0 0.00 0.00 0.00 70 1005.1
20260509011020 61 270 0.0 2.0 0.00 0.00 0.00 70 1005.0
20260509010023 62 0.0 0.0 0.00 0.00 0.00 65 1004.9
20260509005046 62 0.0 0.0 0.00 0.00 0.00 62 1004.8
20260509004029 63 0.0 0.0 0.00 0.00 0.00 59 1004.5
20260509003032 63 0.0 0.0 0.00 0.00 0.00 57 1004.5
20260509002017 64 0.0 0.0 0.00 0.00 0.00 56 1004.6
20260509001021 64 0.0 0.0 0.00 0.00 0.00 56 1004.6
20260509000024 64 202 0.0 2.0 0.00 0.00 0.00 55 1004.5
20260508235106 65 0.0 0.0 0.00 0.00 0.00 55 1004.4
20260508234018 65 0.0 0.0 0.00 0.00 0.00 56 1004.3
20260508233015 65 0.0 0.0 0.00 0.00 0.00 56 1004.5
20260508232018 65 0.0 1.0 0.00 0.00 0.00 55 1004.5
20260508231042 65 202 0.0 1.0 0.00 0.00 0.00 55 1004.5
20260508230029 66 213 0.0 3.0 0.00 0.00 0.00 53 1004.5
20260508225027 67 189 0.0 1.0 0.00 0.00 0.00 53 1004.5
20260508224031 67 207 1.0 2.0 0.00 0.00 0.00 50 1004.5
20260508223016 68 172 0.0 2.0 0.00 0.00 0.00 49 1004.4
20260508222018 68 190 2.0 5.0 0.00 0.00 0.00 48 1004.4
20260508221023 68 118 1.0 2.0 0.00 0.00 0.00 48 1004.4
20260508220026 68 300 0.0 2.0 0.00 0.00 0.00 49 1004.3
20260508215028 68 157 0.0 2.0 0.00 0.00 0.00 47 1004.3
20260508214032 68 212 1.0 4.0 0.00 0.00 0.00 46 1004.4
20260508213017 69 235 3.0 5.0 0.00 0.00 0.00 46 1004.4
20260508212020 69 181 1.0 3.0 0.00 0.00 0.00 46 1004.5
20260508211043 70 152 2.0 5.0 0.00 0.00 0.00 44 1004.7
20260508210026 71 236 2.0 4.0 0.00 0.00 0.00 45 1004.8
20260508205029 68 196 1.0 3.0 0.00 0.00 0.00 47 1005.3
20260508204107 68 130 2.0 4.0 0.00 0.00 0.00 46 1005.3
20260508203017 69 205 4.0 8.0 0.00 0.00 0.00 45 1005.6
20260508202020 69 190 1.0 3.0 0.00 0.00 0.00 46 1005.6
20260508201018 69 191 3.0 6.0 0.00 0.00 0.00 45 1005.7
20260508200027 70 298 1.0 4.0 0.00 0.00 0.00 46 1005.7
20260508195031 69 131 2.0 7.0 0.00 0.00 0.00 45 1005.8
20260508194054 68 249 2.0 5.0 0.00 0.00 0.00 43 1005.9
20260508193039 69 225 4.0 6.0 0.00 0.00 0.00 42 1005.9
20260508192021 70 146 2.0 4.0 0.00 0.00 0.00 44 1006.2
20260508191046 72 152 3.0 4.0 0.00 0.00 0.00 43 1006.2
20260508190028 73 206 3.0 6.0 0.00 0.00 0.00 42 1006.3
20260508185030 74 182 3.0 6.0 0.00 0.00 0.00 43 1006.4
20260508184017 74 112 4.0 5.0 0.00 0.00 0.00 41 1006.6
20260508183100 74 213 3.0 5.0 0.00 0.00 0.00 42 1006.9
20260508182023 73 211 2.0 4.0 0.00 0.00 0.00 43 1007.1
20260508181025 72 214 3.0 7.0 0.00 0.00 0.00 42 1007.2
20260508180028 74 126 2.0 5.0 0.00 0.00 0.00 42 1007.3
20260508175031 73 153 1.0 4.0 0.00 0.00 0.00 45 1007.3
20260508174058 70 220 3.0 6.0 0.00 0.00 0.00 45 1007.4
20260508173019 70 254 3.0 8.0 0.00 0.00 0.00 45 1007.8
20260508172023 71 7 3.0 6.0 0.00 0.00 0.00 45 1008.0
20260508171026 71 183 3.0 5.0 0.00 0.00 0.00 45 1008.2
20260508170023 71 260 5.0 8.0 0.00 0.00 0.00 44 1008.4
20260508165020 72 211 4.0 7.0 0.00 0.00 0.00 47 1008.7
20260508164017 71 217 3.0 5.0 0.00 0.00 0.00 45 1008.9
20260508163020 71 183 2.0 4.0 0.00 0.00 0.00 48 1009.0
20260508162024 71 192 2.0 6.0 0.00 0.00 0.00 48 1009.0
20260508161027 70 132 2.0 6.0 0.00 0.00 0.00 47 1009.1
20260508160030 70 147 2.0 4.0 0.00 0.00 0.00 49 1009.2
20260508155015 69 82 3.0 5.0 0.00 0.00 0.00 48 1009.4
20260508154038 70 246 2.0 4.0 0.00 0.00 0.00 48 1009.5
20260508153021 68 38 2.0 5.0 0.00 0.00 0.00 50 1009.6
20260508152024 67 217 3.0 7.0 0.00 0.00 0.00 50 1009.6
20260508151108 67 191 3.0 7.0 0.00 0.00 0.00 51 1009.7
20260508150031 67 228 3.0 7.0 0.00 0.00 0.00 50 1009.7
20260508145016 65 146 3.0 6.0 0.00 0.00 0.00 49 1009.8
20260508144019 66 188 3.0 5.0 0.00 0.00 0.00 51 1009.8
20260508143022 66 223 3.0 9.0 0.00 0.00 0.00 51 1010.0
20260508142025 64 222 4.0 6.0 0.00 0.00 0.00 50 1010.0
20260508141028 63 194 3.0 7.0 0.00 0.00 0.00 51 1010.0
20260508140032 64 248 4.0 8.0 0.00 0.00 0.00 50 1010.1
20260508135017 63 203 4.0 7.0 0.00 0.00 0.00 51 1010.1
20260508134020 62 195 3.0 6.0 0.00 0.00 0.00 51 1010.1
20260508133023 61 192 4.0 6.0 0.00 0.00 0.00 52 1010.0
20260508132020 61 213 3.0 6.0 0.00 0.00 0.00 52 1010.0
20260508131018 60 168 4.0 8.0 0.00 0.00 0.00 53 1010.0
20260508130033 61 89 3.0 7.0 0.00 0.00 0.00 51 1010.0
20260508125027 59 180 3.0 7.0 0.00 0.00 0.00 54 1010.0